Vertical_Velocity
1 1 2 2 1 1 0 -1 -0 0 1 1 1 -1 -2 -1 -1 -2 -2 -1 -1 -0 -0 -0 1 3 4 5 7 8 9 10 11 11 9 8 6 5 5 5 7 9 10 10 7 5 2 1 1 2 4 6 6 3 1 0 -0 -1 -2 -0 0 -0 -1 1 5 5 1 -3 -4
0 1 1 1 1 0 -0 -1 -0 0 1 1 2 1 -1 -1 -1 -1 -1 -1 -1 -0 0 -0 1 3 4 4 6 7 7 7 8 9 10 10 9 8 8 7 8 10 12 13 11 8 5 4 4 4 5 6 5 2 -0 -0 -0 -1 -1 0 0 0 2 7 9 5 0 -3 -4
0 0 0 0 -0 -0 -0 -0 -0 0 1 0 1 0 -0 -2 -1 -0 -0 -1 -1 0 1 2 2 4 6 6 6 7 7 5 4 5 6 7 8 8 8 8 9 10 12 14 13 10 8 6 6 5 5 4 3 1 -0 -2 -1 -0 1 1 1 3 7 12 9 3 -2 -4 -4
0 0 0 0 -0 -1 -1 0 0 0 0 1 0 -1 -1 -2 -1 -0 -0 -1 -0 0 2 4 5 6 8 9 8 8 7 5 2 -0 -0 1 3 4 6 7 8 9 10 13 12 11 9 7 6 4 3 2 2 1 -0 -2 -1 0 2 2 3 7 11 11 5 0 -3 -4 -4
-0 0 1 1 0 -1 -1 0 1 0 -1 0 0 -1 -2 -1 -0 1 1 2 2 2 3 6 7 7 8 9 8 7 6 5 1 -1 -3 -2 -1 -0 1 3 5 7 8 9 10 9 7 5 3 2 1 2 2 1 -0 -1 1 1 2 2 6 9 10 7 0 -3 -4 -4 -3
-1 -1 -0 1 1 0 -0 -0 0 -0 -1 -0 1 0 -0 1 3 4 4 5 4 4 4 5 6 6 6 6 6 5 4 4 2 2 1 1 -2 -2 -1 1 6 8 8 7 5 4 2 1 -0 -0 0 2 1 -0 -0 1 2 3 4 5 6 7 6 2 -3 -4 -3 -3 -2
-0 -0 0 1 2 2 1 -1 -1 -1 -1 0 2 3 3 4 5 5 5 4 2 2 2 3 4 4 4 4 2 1 1 2 4 7 9 6 0 -2 -1 3 10 13 12 7 3 -0 -1 -1 -1 -1 -0 0 -0 -1 -1 1 2 4 5 4 2 3 3 -1 -4 -3 -1 -1 -1
1 1 1 2 2 2 1 -0 -1 -1 -0 1 3 4 4 4 3 2 1 -0 -1 -0 0 1 2 2 2 1 -1 -3 -3 -0 4 6 6 2 -1 -2 -0 3 12 15 14 9 3 -0 -1 -1 -1 -1 -1 -1 -1 -1 -1 1 2 3 2 1 -1 -1 -1 -1 -2 -1 -0 0 -0
1 1 2 2 2 2 1 0 0 0 0 1 2 2 2 1 0 -1 -2 -2 -2 -1 -0 0 1 1 -0 -2 -4 -5 -5 -3 -2 -3 -4 -5 -4 -3 -2 0 5 8 8 6 3 1 -1 -2 -2 -2 -2 -1 -1 -1 -0 1 1 -0 -1 -0 -1 -2 -3 -1 1 0 -0 0 0
1 1 2 1 0 1 1 1 1 1 1 0 0 0 0 -0 -1 -1 -2 -2 -2 -2 -2 -1 -1 -1 -2 -4 -5 -5 -5 -5 -5 -5 -5 -5 -3 -2 -1 -1 -0 1 2 1 -0 -1 -2 -3 -3 -3 -3 -2 -1 -1 -0 0 0 -1 -3 -2 -0 -0 -1 -1 2 2 0 -0 0
1 1 1 1 -0 -0 0 1 0 0 0 -0 -1 -1 -1 -1 -1 -1 -1 -1 -1 -2 -2 -2 -2 -3 -4 -5 -4 -3 -2 -3 -3 -2 -1 0 0 1 0 -1 -1 -1 -1 -3 -4 -4 -4 -4 -3 -3 -2 -2 -0 0 -0 -0 -0 -1 -2 -2 0 1 2 1 2 2 1 -0 -0
1 1 1 0 -0 -0 -0 -0 -1 -1 -0 -1 -1 -1 -1 -1 -1 -1 -1 -1 -1 -1 -2 -2 -3 -4 -5 -5 -5 -4 -2 0 2 3 4 3 1 -0 -2 -3 -2 -2 -3 -5 -6 -5 -4 -3 -2 -1 -1 -2 -0 0 0 -1 -1 -1 -1 -1 1 3 3 2 1 0 0 0 0
1 0 -0 -0 -0 -0 -1 -1 -2 -1 -1 -1 -2 -1 -1 -1 -1 -1 -1 -1 -1 -1 -2 -2 -2 -3 -5 -5 -6 -5 -4 -3 -1 0 0 -1 -2 -3 -3 -4 -3 -3 -4 -5 -4 -3 -2 -2 -1 -0 0 -1 -1 -0 -0 -1 -0 0 1 3 3 3 2 1 -0 -1 -0 0 1
-0 -1 -1 -1 -1 -1 -1 -2 -2 -2 -2 -2 -2 -1 -1 -1 -1 -1 -1 -1 -1 -1 -1 -1 -2 -3 -4 -5 -5 -6 -6 -6 -5 -4 -4 -4 -3 -3 -3 -3 -3 -2 -2 -2 -3 -2 -1 -2 -1 -0 0 -0 -1 -1 -1 -0 1 2 4 5 3 2 -0 -1 -1 -1 -0 1 1
-1 -1 -1 -1 -1 -1 -1 -2 -2 -2 -2 -2 -2 -2 -1 -1 -1 -1 -1 -1 -1 -1 -1 -1 -1 -2 -3 -4 -5 -6 -6 -5 -5 -5 -4 -4 -4 -3 -2 -2 -2 -2 -2 -3 -3 -3 -2 -1 -1 -1 -0 0 -1 -1 -1 0 2 3 4 4 2 0 -1 -1 -1 -1 -0 1 1
-2 -2 -2 -1 -1 -1 -1 -1 -1 -2 -2 -2 -3 -2 -2 -2 -1 -1 -0 -0 -1 -1 -1 -1 -1 -2 -2 -3 -4 -5 -5 -5 -4 -4 -3 -3 -3 -3 -2 -2 -2 -3 -3 -3 -3 -3 -2 -1 -1 -0 0 1 0 0 1 1 2 2 2 2 1 1 0 -0 -1 -1 -1 0 1
-2 -2 -2 -1 -1 -1 -1 -1 -1 -1 -2 -2 -3 -3 -3 -2 -1 -1 -0 -0 -0 -1 -1 -1 -1 -1 -2 -3 -4 -4 -4 -4 -3 -3 -2 -2 -2 -1 -1 -1 -2 -2 -2 -2 -2 -2 -2 -1 -0 1 1 1 1 1 1 1 1 1 2 1 1 1 1 -0 -0 -0 -0 0 1
-2 -2 -1 -1 -0 -0 -1 -1 -1 -1 -2 -2 -3 -3 -3 -3 -2 -1 -0 -0 0 -0 -0 -1 -1 -1 -1 -3 -3 -3 -3 -3 -3 -3 -2 -2 -2 -2 -2 -2 -2 -2 -2 -1 -1 -1 -1 -0 0 1 1 1 1 1 1 1 2 2 2 2 1 1 1 -0 -0 -0 1 1 1
-2 -1 -1 -0 -0 -1 -1 -1 -1 -2 -2 -2 -2 -2 -3 -3 -2 -1 -1 -1 -0 0 0 -0 -1 -1 -2 -2 -3 -3 -3 -3 -3 -3 -3 -3 -3 -3 -3 -3 -2 -2 -1 -0 -0 -0 -0 0 1 1 1 1 1 1 1 2 2 2 2 2 1 1 0 -0 -0 0 1 1 1
-1 -1 -0 -0 -1 -1 -1 -1 -1 -2 -2 -2 -2 -2 -2 -2 -2 -2 -1 -1 -1 -0 0 -0 -1 -1 -2 -3 -3 -3 -3 -3 -3 -3 -3 -3 -3 -3 -3 -3 -2 -1 -0 0 0 0 -0 -0 0 1 1 1 1 1 2 2 2 2 2 1 1 1 0 -0 -0 0 0 1 1
-0 -0 -1 -1 -1 -1 -1 -1 -1 -1 -1 -1 -1 -1 -1 -1 -1 -1 -1 -1 -1 -1 -1 -0 -1 -1 -2 -3 -3 -3 -3 -3 -3 -3 -3 -3 -3 -3 -2 -2 -2 -1 -0 0 -0 -0 -1 -0 0 1 1 2 2 2 2 2 2 1 1 1 1 0 0 0 0 0 0 0 0
-0 -0 -1 -1 -2 -2 -2 -1 -1 -1 -1 -1 -1 -1 -1 -1 -1 -1 -1 -1 -2 -2 -2 -1 -1 -1 -2 -3 -3 -3 -3 -3 -3 -3 -3 -3 -3 -2 -2 -1 -1 -1 -0 -0 -0 -1 -1 -0 1 1 2 2 2 1 1 1 1 0 0 -0 0 0 0 0 0 -0 -0 -1 -0
-0 -1 -1 -1 -1 -2 -2 -2 -1 -1 -1 -1 -1 -1 -2 -2 -2 -2 -1 -2 -2 -2 -2 -2 -1 -1 -1 -2 -3 -3 -3 -3 -3 -3 -2 -2 -2 -2 -1 -1 -0 0 0 0 -0 -0 -0 -0 0 1 1 2 1 1 0 0 0 0 0 -0 0 0 0 0 0 -0 -1 -1 -0
-1 -1 -1 -1 -1 -1 -1 -1 -1 -1 -1 -1 -1 -1 -1 -1 -2 -1 -1 -2 -2 -2 -2 -2 -2 -2 -2 -2 -2 -3 -3 -3 -3 -3 -2 -2 -1 -1 -1 -0 0 0 0 0 -0 -0 -0 -0 0 0 0 1 0 0 -0 0 1 1 1 1 1 1 0 0 -0 -0 -0 -1 -1
-1 -1 -1 -1 -1 -1 -1 -1 -1 -1 -2 -2 -2 -1 -1 -1 -1 -1 -1 -1 -1 -1 -1 -1 -2 -2 -2 -2 -2 -2 -2 -2 -2 -2 -2 -2 -1 -1 -1 -0 -0 -0 -0 -1 -1 -1 -1 -0 0 0 0 0 0 -0 -0 0 1 1 1 1 1 1 1 -0 -1 -1 -0 -0 -0
-0 -1 -1 -1 -1 -1 -1 -1 -1 -1 -1 -2 -2 -2 -1 -1 -0 -0 0 -0 -1 -1 -1 -1 -1 -1 -1 -1 -2 -2 -2 -2 -2 -2 -2 -2 -2 -1 -1 -1 -1 -1 -1 -1 -1 -1 -1 -1 -0 0 1 1 1 0 0 0 1 1 1 1 1 1 1 -0 -1 -1 -1 -1 -1
1 1 0 -0 -1 -1 -2 -2 -1 -1 -1 -1 -1 -1 -1 -1 -0 0 1 1 0 0 -0 -0 -0 -1 -1 -1 -1 -1 -2 -2 -2 -2 -2 -2 -2 -2 -2 -1 -1 -1 -1 -2 -2 -1 -1 -1 -1 -0 0 1 1 1 1 0 0 0 1 0 0 0 0 0 -0 -0 -1 -1 -1
2 2 1 1 1 -0 -1 -1 -1 -1 -1 -1 -1 -1 -1 -1 -1 -0 0 1 0 0 0 -0 -1 -1 -1 -1 -1 -1 -2 -2 -2 -2 -2 -2 -2 -2 -1 -1 -1 -1 -1 -2 -2 -2 -1 -1 -1 -1 -0 1 0 0 0 0 0 -0 -0 -0 -0 -0 -0 -0 -0 -0 -1 -1 -1
2 2 2 2 1 1 0 -0 -0 -0 -0 -0 -0 -0 -0 -0 -1 -1 -0 -0 -0 -0 -0 -1 -1 -1 -1 -1 -1 -1 -2 -2 -2 -2 -2 -1 -1 -1 -1 -1 -1 -1 -1 -2 -2 -2 -2 -1 -1 -1 -1 0 0 0 -0 -0 0 -0 -0 -1 -0 -0 -0 -0 -1 -1 -1 -1 -0
1 2 2 2 1 1 1 0 0 -0 -0 0 0 0 0 0 -0 -0 -0 -0 -0 -1 -1 -1 -1 -1 -1 -1 -1 -1 -1 -1 -2 -1 -1 -1 -0 -0 -0 -0 -0 -1 -1 -2 -3 -2 -2 -2 -2 -2 -1 -0 1 0 -0 -0 -0 0 -0 -0 -1 -1 -1 -1 -1 -1 -1 -0 0
1 1 1 1 1 1 0 0 0 0 0 0 0 0 0 0 0 0 -0 -0 -1 -1 -1 -1 -1 -1 -1 -1 -1 -0 -0 -1 -1 -1 -0 -0 -0 0 -0 -0 -1 -1 -2 -2 -3 -3 -3 -2 -2 -2 -1 -0 1 1 1 -1 -1 -0 0 -0 -1 -1 -1 -1 -1 -1 -0 0 1
1 1 1 1 1 1 0 0 1 1 1 0 0 0 0 0 0 0 0 -0 -0 -0 -1 -1 -1 -1 -1 -1 -1 -0 -0 0 -0 -0 0 0 0 0 0 -0 -1 -1 -2 -3 -3 -2 -2 -2 -2 -2 -1 -0 1 2 2 -0 -1 -1 -0 -0 -1 -1 -1 -1 -1 -1 -0 0 1
1 1 2 1 1 1 0 0 1 1 1 1 0 -0 -0 -0 0 0 0 -0 0 0 -0 -0 -1 -1 -1 -1 -1 -0 0 1 1 1 1 0 0 0 0 -0 -1 -1 -2 -2 -2 -2 -2 -1 -2 -2 -2 -1 1 2 2 0 -2 -2 -2 -1 -1 -1 -1 -1 -0 -0 -0 -0 0
1 1 2 1 1 0 0 0 1 1 1 1 0 -0 -0 -0 -0 -0 -0 -0 0 0 0 -0 -0 -1 -1 -0 -0 0 1 1 1 1 1 0 0 -0 -0 -0 -1 -1 -1 -2 -2 -2 -1 -1 -2 -2 -3 -2 -0 2 3 1 -2 -3 -3 -2 -2 -1 -1 -0 0 0 0 -0 -0
1 2 2 2 1 0 -0 -0 0 1 1 1 0 -0 -0 -0 -0 -0 -0 -0 0 1 1 0 -0 -0 -0 -0 -0 0 0 1 1 1 1 0 -0 -0 -0 -1 -1 -1 -1 -2 -2 -2 -1 -1 -2 -2 -3 -3 -1 1 3 3 -1 -3 -4 -3 -3 -2 -1 -0 -0 -0 -0 -1 -0
-0 1 2 3 3 2 0 -0 -0 0 1 1 0 -0 -0 -0 -0 -0 -0 -0 0 1 1 0 0 0 -0 -0 -0 -0 0 0 0 0 0 0 0 -0 -1 -1 -1 -2 -2 -1 -1 -1 -1 -1 -2 -3 -3 -4 -3 -0 2 3 1 -1 -3 -4 -3 -2 -1 -0 -0 -1 -1 -1 -1
-2 -1 1 2 3 3 2 1 0 0 1 1 1 0 0 0 0 0 0 0 1 1 0 0 1 1 0 -0 0 -0 -0 -0 -0 -0 -0 0 1 0 -0 -1 -2 -2 -2 -1 -1 -1 -1 -1 -2 -2 -3 -4 -3 -2 0 2 2 0 -2 -3 -3 -2 -2 -1 -0 -1 -1 -1 -1
-2 -2 -1 0 2 2 2 2 1 1 0 1 1 1 1 1 1 0 0 1 1 1 0 0 1 1 1 1 1 0 -0 -1 -0 -0 -0 -0 0 1 1 -0 -2 -2 -2 -1 -1 -1 -1 -1 -1 -2 -2 -2 -2 -2 -1 1 2 1 0 -1 -1 -1 -1 -0 -0 -0 -1 -1 -1
-3 -2 -2 -1 0 1 2 2 1 1 0 1 1 1 1 1 1 1 1 1 2 1 1 1 1 1 1 1 1 1 -0 -1 -0 -0 0 -0 0 1 1 1 -0 -1 -2 -1 -1 -1 -1 -1 -1 -2 -2 -1 -1 -1 -1 -0 0 1 0 0 0 -0 -0 0 0 -0 -1 -1 -1
-2 -2 -2 -1 -0 0 1 2 1 0 -0 1 2 2 2 1 1 1 1 2 2 2 1 1 1 0 1 2 2 1 0 -1 -1 -0 0 0 -0 0 1 2 1 -1 -1 -1 -1 -1 -1 -1 -1 -1 -1 -1 -1 -1 -1 -1 -1 -1 -1 -0 0 1 0 -0 -0 -0 -1 -1 -1
-2 -2 -2 -2 -1 0 1 1 1 -0 -0 0 1 2 2 2 2 2 2 2 2 2 2 2 1 0 1 1 2 2 1 0 -1 -0 0 0 -0 0 1 2 1 0 -1 -1 -1 -1 -0 -0 -1 -1 -1 -1 -0 -0 -0 -0 -1 -2 -2 -1 -1 -0 -0 -1 -1 -1 -1 -1 -1
Height
5696 5694 5692 5690 5689 5687 5685 5683 5681 5679 5677 5674 5672 5669 5667 5665 5663 5661 5658 5656 5653 5651 5648 5646 5644 5642 5639 5637 5635 5633 5631 5628 5626 5623 5621 5619 5617 5616 5615 5614 5613 5612 5611 5609 5608 5607 5606 5606 5605 5604 5603 5602 5601 5600 5598 5597 5595 5593 5592 5590 5589 5588 5586 5584 5582 5580 5577 5574 5572
5692 5690 5688 5687 5685 5683 5681 5679 5677 5674 5672 5670 5667 5665 5663 5661 5658 5656 5653 5651 5648 5646 5643 5641 5638 5636 5633 5630 5628 5626 5624 5622 5620 5618 5616 5615 5613 5612 5611 5610 5608 5607 5606 5605 5604 5603 5602 5601 5600 5600 5599 5598 5597 5595 5593 5592 5591 5589 5587 5586 5585 5583 5582 5580 5578 5575 5572 5569 5567
5688 5686 5684 5682 5681 5679 5677 5675 5672 5670 5668 5665 5663 5661 5658 5656 5653 5651 5648 5646 5643 5641 5638 5635 5632 5630 5627 5624 5622 5620 5618 5616 5614 5613 5611 5610 5609 5608 5607 5606 5604 5603 5601 5600 5599 5598 5597 5597 5596 5595 5595 5593 5592 5591 5589 5587 5586 5585 5583 5582 5581 5579 5577 5576 5573 5570 5567 5564 5562
5684 5682 5680 5678 5677 5674 5672 5670 5668 5666 5663 5661 5658 5656 5654 5651 5649 5646 5644 5641 5639 5636 5633 5631 5627 5624 5621 5618 5616 5614 5612 5610 5608 5607 5606 5605 5604 5603 5602 5601 5600 5598 5597 5596 5595 5593 5593 5592 5591 5591 5590 5589 5588 5586 5585 5583 5582 5581 5580 5578 5577 5575 5573 5571 5568 5564 5561 5559 5557
5680 5678 5676 5674 5672 5670 5668 5666 5663 5661 5659 5657 5654 5652 5649 5647 5645 5642 5640 5637 5635 5632 5629 5626 5622 5619 5615 5612 5610 5608 5607 5605 5603 5602 5601 5600 5599 5598 5598 5597 5596 5595 5593 5592 5590 5589 5588 5587 5587 5586 5585 5584 5583 5582 5581 5579 5578 5577 5576 5574 5572 5571 5569 5566 5562 5559 5556 5554 5552
5675 5673 5672 5670 5668 5665 5663 5661 5659 5657 5654 5652 5650 5648 5646 5643 5641 5639 5637 5634 5632 5628 5625 5621 5617 5613 5609 5606 5604 5602 5601 5600 5599 5597 5596 5595 5594 5593 5593 5592 5592 5591 5589 5588 5587 5585 5584 5583 5582 5582 5581 5580 5579 5577 5576 5575 5574 5573 5572 5570 5568 5566 5564 5560 5557 5554 5552 5550 5548
5671 5669 5667 5666 5663 5661 5659 5657 5654 5652 5650 5648 5647 5644 5642 5640 5638 5636 5633 5631 5627 5624 5620 5615 5611 5607 5603 5600 5598 5597 5596 5595 5594 5593 5592 5590 5589 5589 5589 5588 5587 5587 5586 5584 5583 5582 5581 5580 5579 5578 5577 5576 5574 5573 5572 5572 5570 5569 5567 5565 5563 5561 5559 5555 5552 5550 5547 5545 5543
5667 5665 5663 5661 5659 5657 5654 5652 5650 5648 5646 5644 5642 5641 5638 5636 5634 5632 5629 5626 5623 5619 5614 5610 5605 5601 5597 5595 5593 5592 5591 5591 5590 5589 5587 5586 5585 5584 5584 5584 5583 5583 5582 5581 5580 5578 5577 5576 5575 5574 5572 5572 5571 5570 5569 5568 5566 5564 5562 5561 5558 5556 5553 5550 5547 5545 5543 5541 5539
5662 5660 5658 5657 5654 5652 5650 5648 5646 5644 5642 5640 5638 5637 5634 5632 5629 5627 5624 5621 5618 5614 5610 5605 5600 5596 5592 5590 5588 5587 5587 5586 5585 5584 5583 5582 5582 5581 5581 5580 5580 5579 5578 5577 5576 5575 5573 5572 5571 5570 5568 5567 5567 5566 5565 5564 5562 5560 5558 5556 5554 5551 5548 5546 5543 5541 5538 5537 5534
5657 5656 5654 5652 5650 5647 5646 5644 5642 5640 5638 5636 5634 5632 5630 5627 5625 5622 5619 5617 5613 5609 5605 5601 5596 5591 5587 5585 5583 5583 5582 5582 5581 5580 5579 5578 5578 5577 5577 5577 5576 5575 5574 5573 5572 5571 5570 5568 5567 5566 5565 5564 5563 5562 5561 5559 5557 5555 5553 5552 5549 5546 5543 5541 5539 5537 5534 5532 5530
5653 5652 5649 5647 5645 5643 5641 5640 5638 5636 5634 5632 5630 5627 5625 5623 5620 5618 5615 5612 5609 5605 5601 5597 5592 5587 5584 5581 5579 5579 5579 5578 5577 5576 5575 5574 5574 5573 5572 5572 5572 5571 5569 5568 5568 5567 5566 5565 5563 5562 5562 5561 5560 5558 5557 5555 5553 5551 5549 5547 5544 5542 5539 5537 5535 5532 5530 5527 5525
5649 5647 5645 5643 5641 5639 5637 5636 5634 5632 5630 5628 5626 5623 5621 5619 5616 5614 5611 5608 5605 5602 5598 5594 5589 5585 5581 5578 5576 5575 5575 5575 5574 5573 5572 5571 5570 5569 5568 5568 5567 5566 5565 5565 5564 5563 5562 5561 5561 5560 5558 5557 5556 5554 5552 5551 5549 5547 5544 5542 5539 5537 5535 5533 5530 5528 5526 5523 5521
5644 5642 5641 5638 5637 5635 5633 5632 5630 5628 5626 5624 5622 5619 5617 5615 5612 5610 5607 5604 5602 5598 5595 5591 5587 5583 5579 5575 5573 5572 5571 5571 5570 5569 5568 5567 5567 5566 5565 5564 5563 5563 5562 5561 5561 5560 5559 5558 5557 5556 5555 5553 5552 5550 5548 5547 5545 5542 5540 5537 5535 5533 5531 5528 5526 5524 5522 5519 5517
5640 5638 5636 5634 5633 5631 5629 5628 5626 5624 5622 5620 5617 5615 5613 5611 5608 5606 5603 5601 5598 5595 5592 5588 5585 5581 5577 5574 5571 5569 5567 5566 5566 5565 5564 5563 5563 5562 5561 5561 5560 5559 5558 5557 5557 5556 5555 5554 5553 5552 5551 5549 5547 5546 5544 5542 5540 5538 5536 5534 5531 5529 5527 5524 5522 5519 5517 5515 5513
5636 5634 5632 5631 5629 5627 5626 5624 5622 5620 5618 5616 5614 5612 5609 5607 5604 5602 5600 5597 5595 5592 5589 5586 5582 5579 5575 5572 5569 5566 5564 5563 5562 5561 5561 5560 5559 5558 5558 5557 5557 5556 5555 5554 5553 5552 5552 5551 5549 5548 5547 5545 5544 5542 5540 5538 5536 5534 5532 5530 5527 5525 5522 5520 5517 5515 5513 5511 5508
5632 5630 5629 5627 5625 5624 5622 5621 5619 5617 5614 5612 5610 5608 5605 5603 5601 5598 5596 5594 5591 5589 5586 5583 5580 5577 5573 5570 5567 5564 5562 5560 5559 5558 5557 5557 5556 5555 5554 5554 5553 5552 5551 5550 5549 5549 5548 5547 5545 5544 5542 5541 5540 5538 5536 5534 5532 5530 5527 5525 5522 5520 5518 5515 5513 5511 5508 5506 5504
5628 5627 5625 5624 5622 5621 5619 5617 5615 5613 5611 5609 5606 5604 5602 5599 5597 5595 5593 5591 5588 5586 5583 5581 5577 5574 5571 5568 5565 5562 5560 5558 5557 5556 5554 5553 5552 5552 5551 5550 5549 5548 5547 5547 5546 5545 5544 5543 5542 5540 5538 5537 5535 5533 5532 5529 5527 5525 5523 5521 5518 5516 5514 5511 5509 5507 5504 5502 5500
5625 5623 5622 5620 5619 5617 5615 5613 5612 5609 5607 5605 5603 5601 5598 5596 5594 5592 5590 5588 5585 5583 5580 5578 5575 5572 5569 5566 5563 5560 5558 5556 5555 5553 5552 5551 5550 5548 5547 5547 5546 5545 5544 5543 5543 5542 5540 5539 5537 5536 5534 5533 5531 5529 5527 5525 5523 5521 5519 5517 5515 5512 5510 5507 5505 5502 5500 5498 5495
5622 5620 5619 5617 5616 5614 5612 5610 5608 5606 5604 5602 5599 5597 5595 5593 5591 5589 5587 5585 5582 5580 5578 5575 5572 5570 5567 5564 5561 5558 5556 5554 5553 5551 5550 5548 5547 5546 5545 5544 5543 5542 5541 5540 5539 5538 5537 5535 5534 5532 5531 5529 5527 5525 5523 5522 5519 5517 5515 5513 5511 5508 5506 5503 5501 5498 5496 5494 5491
5618 5617 5616 5614 5612 5611 5609 5607 5605 5602 5600 5598 5596 5594 5592 5590 5587 5586 5584 5582 5580 5577 5575 5573 5570 5567 5564 5562 5559 5557 5554 5552 5551 5549 5548 5546 5545 5544 5542 5541 5540 5539 5538 5537 5536 5535 5533 5532 5530 5529 5527 5525 5524 5522 5520 5518 5516 5514 5511 5509 5507 5504 5502 5499 5497 5494 5492 5489 5487
5615 5614 5612 5611 5609 5607 5605 5603 5602 5599 5597 5595 5593 5591 5589 5587 5585 5583 5581 5579 5577 5575 5572 5570 5567 5565 5562 5559 5557 5555 5552 5551 5549 5547 5546 5544 5543 5542 5540 5539 5538 5537 5536 5534 5533 5532 5530 5529 5527 5526 5524 5522 5520 5518 5517 5514 5512 5510 5507 5505 5503 5500 5498 5496 5493 5491 5488 5485 5482
5612 5611 5609 5607 5606 5604 5602 5600 5598 5596 5594 5592 5590 5588 5586 5584 5582 5580 5578 5576 5574 5572 5570 5568 5565 5563 5560 5557 5555 5553 5551 5549 5547 5545 5544 5542 5541 5540 5538 5537 5536 5535 5533 5532 5531 5529 5527 5526 5524 5523 5521 5519 5517 5515 5513 5511 5508 5506 5504 5502 5499 5497 5494 5492 5489 5486 5484 5481 5478
5609 5608 5606 5604 5602 5601 5599 5597 5595 5593 5591 5589 5587 5585 5583 5581 5579 5577 5575 5573 5571 5569 5567 5565 5563 5561 5558 5556 5553 5551 5549 5547 5545 5544 5542 5541 5539 5538 5536 5535 5534 5532 5531 5530 5528 5527 5525 5523 5522 5520 5518 5516 5514 5512 5509 5507 5505 5502 5500 5498 5495 5493 5491 5488 5485 5482 5479 5477 5474
5606 5605 5603 5601 5599 5598 5596 5594 5592 5590 5588 5586 5584 5582 5580 5578 5576 5574 5572 5571 5569 5567 5565 5563 5561 5558 5556 5554 5551 5549 5547 5545 5544 5542 5540 5539 5537 5536 5535 5533 5532 5531 5529 5527 5526 5524 5522 5520 5518 5517 5515 5512 5510 5508 5506 5503 5501 5499 5496 5494 5492 5489 5487 5484 5481 5478 5476 5473 5470
5603 5602 5600 5598 5597 5595 5593 5591 5589 5587 5585 5583 5581 5579 5577 5575 5573 5572 5570 5568 5566 5564 5562 5561 5558 5556 5554 5552 5550 5547 5546 5544 5542 5540 5539 5537 5536 5534 5532 5531 5530 5528 5527 5525 5523 5521 5519 5517 5515 5513 5511 5509 5507 5504 5502 5500 5497 5495 5493 5490 5488 5485 5483 5480 5477 5475 5472 5469 5466
5601 5599 5597 5595 5593 5592 5590 5588 5586 5584 5582 5580 5578 5576 5574 5572 5571 5569 5567 5565 5564 5562 5560 5558 5556 5554 5552 5550 5548 5546 5544 5542 5540 5538 5537 5535 5534 5532 5531 5529 5527 5526 5524 5522 5520 5518 5517 5514 5512 5510 5508 5506 5503 5501 5498 5496 5494 5492 5489 5487 5484 5482 5479 5477 5474 5471 5468 5465 5462
5598 5596 5594 5592 5590 5588 5587 5584 5582 5581 5579 5577 5575 5573 5571 5570 5568 5566 5564 5563 5561 5559 5557 5556 5554 5552 5550 5548 5546 5544 5542 5540 5538 5537 5535 5533 5532 5530 5528 5527 5525 5523 5521 5519 5517 5515 5513 5512 5509 5507 5505 5502 5500 5497 5495 5493 5490 5488 5486 5483 5480 5478 5475 5473 5470 5467 5464 5461 5458
5595 5593 5592 5589 5587 5585 5583 5582 5580 5578 5576 5574 5572 5570 5568 5567 5565 5563 5562 5560 5558 5556 5555 5553 5551 5549 5547 5545 5544 5542 5540 5538 5536 5534 5532 5531 5529 5527 5526 5524 5522 5520 5518 5516 5514 5512 5511 5508 5507 5504 5502 5499 5497 5494 5492 5489 5487 5484 5482 5479 5477 5474 5472 5469 5466 5463 5461 5457 5455
5592 5591 5588 5587 5584 5582 5581 5578 5577 5575 5573 5571 5569 5567 5566 5564 5562 5560 5559 5557 5555 5554 5552 5550 5548 5546 5545 5543 5541 5539 5537 5535 5533 5532 5530 5528 5527 5525 5523 5521 5519 5517 5515 5513 5511 5509 5507 5506 5503 5501 5499 5496 5493 5491 5488 5486 5483 5481 5478 5476 5473 5471 5468 5465 5462 5460 5457 5454 5451
5589 5587 5586 5583 5582 5579 5577 5576 5574 5572 5570 5568 5566 5564 5563 5561 5559 5558 5556 5554 5552 5551 5549 5547 5545 5544 5542 5540 5539 5537 5535 5533 5531 5529 5527 5526 5524 5522 5521 5519 5517 5515 5512 5511 5508 5507 5505 5502 5500 5498 5496 5493 5491 5488 5485 5483 5480 5477 5475 5472 5470 5467 5464 5462 5459 5456 5453 5450 5447
5586 5584 5582 5580 5578 5576 5574 5572 5571 5569 5567 5565 5563 5562 5560 5558 5557 5555 5553 5552 5550 5548 5546 5544 5543 5541 5539 5538 5536 5534 5532 5531 5528 5527 5525 5523 5522 5520 5518 5516 5514 5512 5510 5507 5506 5503 5502 5499 5497 5495 5493 5490 5487 5485 5482 5479 5477 5474 5472 5469 5466 5463 5460 5458 5455 5452 5449 5447 5444
5583 5581 5579 5577 5575 5573 5572 5570 5567 5566 5564 5562 5560 5559 5557 5555 5554 5552 5551 5549 5547 5545 5543 5542 5540 5538 5537 5535 5533 5532 5530 5528 5526 5524 5522 5521 5519 5517 5515 5513 5511 5509 5507 5505 5502 5501 5498 5496 5494 5492 5489 5487 5484 5482 5479 5476 5473 5471 5468 5465 5462 5460 5457 5454 5451 5448 5446 5443 5440
5579 5577 5576 5574 5572 5570 5568 5567 5565 5563 5561 5559 5557 5555 5554 5552 5551 5549 5547 5546 5544 5542 5541 5539 5537 5536 5534 5532 5531 5529 5527 5525 5523 5522 5520 5518 5516 5514 5512 5510 5508 5506 5504 5502 5499 5497 5495 5493 5491 5488 5486 5484 5481 5478 5476 5472 5470 5467 5464 5462 5459 5456 5453 5451 5448 5445 5442 5439 5436
5576 5574 5572 5571 5568 5567 5565 5563 5561 5559 5557 5556 5554 5552 5551 5549 5547 5546 5545 5543 5541 5540 5538 5536 5535 5533 5531 5530 5528 5526 5524 5523 5521 5519 5517 5515 5513 5511 5509 5507 5505 5503 5501 5499 5497 5494 5492 5490 5488 5485 5483 5481 5478 5476 5472 5469 5466 5463 5461 5458 5455 5453 5450 5447 5444 5441 5438 5435 5432
5573 5571 5569 5567 5565 5563 5562 5560 5558 5556 5554 5552 5551 5549 5547 5546 5544 5543 5542 5540 5538 5537 5535 5533 5532 5530 5528 5527 5525 5523 5522 5520 5518 5516 5514 5512 5510 5508 5506 5504 5502 5500 5498 5496 5493 5491 5489 5487 5484 5482 5479 5477 5475 5472 5470 5467 5463 5460 5457 5454 5452 5449 5447 5444 5441 5438 5435 5432 5429
5569 5567 5566 5564 5562 5560 5558 5556 5555 5553 5551 5549 5547 5546 5544 5543 5541 5540 5538 5537 5535 5534 5532 5531 5529 5527 5525 5523 5522 5520 5518 5517 5515 5513 5511 5509 5507 5505 5503 5501 5499 5497 5495 5492 5490 5488 5486 5484 5481 5479 5476 5474 5472 5469 5467 5464 5460 5457 5454 5451 5448 5446 5443 5440 5437 5434 5432 5428 5425
5566 5564 5562 5560 5559 5557 5555 5553 5551 5549 5547 5546 5544 5542 5541 5539 5538 5537 5535 5533 5532 5530 5529 5527 5526 5524 5522 5521 5519 5517 5515 5514 5512 5510 5508 5506 5504 5502 5500 5498 5496 5494 5492 5489 5487 5485 5483 5480 5478 5475 5472 5470 5468 5466 5464 5461 5458 5454 5451 5448 5445 5442 5440 5437 5434 5431 5428 5425 5422
5562 5561 5559 5557 5555 5553 5551 5549 5547 5546 5544 5542 5541 5539 5538 5536 5535 5533 5532 5530 5529 5527 5525 5524 5522 5521 5519 5517 5516 5514 5512 5510 5509 5507 5505 5503 5501 5499 5497 5495 5493 5491 5488 5486 5484 5482 5479 5477 5475 5472 5469 5467 5465 5462 5460 5458 5455 5452 5448 5445 5442 5439 5437 5434 5431 5428 5425 5422 5419
5559 5557 5555 5553 5551 5549 5547 5546 5544 5542 5541 5539 5537 5536 5534 5533 5531 5530 5528 5527 5525 5524 5522 5520 5519 5517 5516 5514 5512 5511 5509 5507 5505 5504 5502 5500 5498 5496 5494 5492 5489 5487 5485 5483 5481 5478 5476 5474 5471 5469 5466 5464 5461 5459 5457 5454 5452 5449 5446 5442 5439 5437 5433 5431 5428 5425 5422 5419 5416
5556 5554 5552 5550 5547 5546 5544 5542 5540 5538 5537 5536 5534 5532 5531 5529 5528 5527 5525 5523 5522 5520 5519 5517 5515 5514 5512 5511 5509 5507 5506 5504 5502 5500 5498 5497 5494 5492 5491 5488 5486 5484 5482 5479 5477 5475 5473 5471 5468 5466 5463 5461 5458 5456 5453 5451 5448 5445 5442 5439 5437 5433 5430 5427 5425 5422 5419 5416 5413
5552 5550 5548 5546 5544 5542 5540 5538 5536 5535 5533 5532 5530 5529 5527 5526 5524 5523 5521 5520 5518 5517 5515 5514 5512 5510 5509 5507 5506 5504 5502 5501 5499 5497 5495 5493 5491 5489 5487 5485 5483 5481 5478 5476 5474 5472 5470 5467 5465 5462 5460 5457 5455 5452 5450 5448 5445 5442 5439 5436 5433 5430 5427 5424 5421 5418 5416 5413 5411